Surface/Atmospheric History
02/08/2018 18:12  to  2/9/2018 18:12
Change End Date:
To complete the export process:
1) Select all of the data below
2) Copy the data to the clipboard
3) Open a word processor such as Notepad
4) Paste the data into the word processor
5) Save the file

Date/Time (MST), SfStat, SfTemp, PvtTemp, SubTemp, AirTemp, RH, Dewpoint, AvgWindSpeed, GustWindSpeed, WindDirection, PrecipType, PrecipIntenisity
02/09/2018 18:03, Ice Watch , 27.9 , , , 20, 92, 18, 0, 1, NE, Yes,
02/09/2018 18:00, Ice Watch , 28 , , , 20, 92, 18, 0, 0, E, Yes,
02/09/2018 17:53, Ice Watch , 28.2 , , , 20, 92, 18, 0, 0, E, Yes,
02/09/2018 17:45, Ice Watch , 28.4 , , , 20, 91, 18, 0, 1, E, Yes,
02/09/2018 17:43, Ice Watch , 28.6 , , , 20, 91, 18, 0, 1, E, Yes,
02/09/2018 17:33, Ice Watch , 28.9 , , , 21, 90, 18, 0, 1, E, Yes,
02/09/2018 17:30, Ice Watch , 28.9 , , , 21, 89, 18, 0, 0, E, Yes,
02/09/2018 17:23, Ice Watch , 29.3 , , , 21, 88, 18, 0, 0, E, Yes,
02/09/2018 17:15, Ice Watch , 29.5 , , , 21, 84, 17, 0, 0, E, Yes,
02/09/2018 17:13, Ice Watch , 29.5 , , , 21, 82, 17, 0, 1, S, Yes,
02/09/2018 17:03, Ice Watch , 29.5 , , , 21, 83, 17, 0, 1, SW, Yes,
02/09/2018 17:00, Ice Watch , 29.5 , , , 21, 80, 16, 0, 1, SW, Yes,
02/09/2018 16:53, Ice Watch , 29.7 , , , 21, 79, 16, 0, 1, SW, None, None
02/09/2018 16:45, Ice Watch , 29.8 , , , 21, 77, 15, 0, 1, E, Yes,
02/09/2018 16:43, Ice Watch , 30 , , , 21, 76, 15, 0, 1, E, Yes,
02/09/2018 16:33, Ice Watch , 30.2 , , , 21, 74, 14, 1, 2, SE, Yes,
02/09/2018 16:30, Ice Watch , 30.2 , , , 21, 74, 15, 1, 1, S, None, None
02/09/2018 16:23, Ice Watch , 30.4 , , , 22, 79, 16, 1, 1, SE, Yes,
02/09/2018 16:16, Ice Watch , 30.4 , , , 22, 78, 16, 1, 2, SE, Yes,
02/09/2018 16:13, Ice Watch , 30.6 , , , 22, 78, 16, 1, 2, SE, Yes,
02/09/2018 16:03, Ice Watch , 30.6 , , , 22, 77, 16, 1, 1, SE, Yes,
02/09/2018 16:00, Ice Watch , 30.6 , , , 22, 76, 16, 1, 2, SE, Yes,
02/09/2018 15:53, Ice Watch , 30.9 , , , 21, 73, 14, 2, 3, SE, Yes,
02/09/2018 15:45, Ice Watch , 30.9 , , , 22, 73, 14, 2, 3, SE, Yes,
02/09/2018 15:43, Ice Watch , 31.1 , , , 22, 73, 14, 1, 2, S, Yes,
02/09/2018 15:33, Ice Watch , 31.1 , , , 21, 71, 14, 2, 4, SE, Yes,
02/09/2018 15:30, Ice Watch , 31.1 , , , 21, 73, 14, 3, 4, S, None, None
02/09/2018 15:23, Ice Watch , 31.3 , , , 22, 73, 15, 2, 2, S, Yes,
02/09/2018 15:15, Ice Watch , 31.3 , , , 22, 71, 14, 1, 2, S, Yes,
02/09/2018 15:13, Ice Watch , 31.3 , , , 22, 73, 14, 2, 2, S, None, None
02/09/2018 15:03, Ice Watch , 31.6 , , , 21, 72, 14, 3, 4, S, None, None
02/09/2018 15:00, Ice Watch , 31.6 , , , 22, 72, 14, 3, 4, S, None, None
02/09/2018 14:53, Ice Watch , 31.6 , , , 22, 73, 15, 1, 2, S, Yes,
02/09/2018 14:45, Ice Watch , 31.6 , , , 21, 73, 14, 1, 4, S, Yes,
02/09/2018 14:43, Ice Watch , 31.6 , , , 21, 74, 15, 2, 4, S, Yes,
02/09/2018 14:33, Ice Watch , 31.6 , , , 21, 74, 15, 4, 5, SE, None, None
02/09/2018 14:31, Ice Watch , 31.6 , , , 21, 74, 14, 4, 5, S, Yes,
02/09/2018 14:23, Ice Watch , 31.8 , , , 22, 74, 15, 1, 4, S, Yes,
02/09/2018 14:15, Ice Watch , 31.6 , , , 21, 71, 13, 2, 3, S, Yes,
02/09/2018 14:13, Ice Watch , 31.6 , , , 21, 72, 14, 2, 3, S, Yes,
02/09/2018 14:03, Ice Watch , 31.6 , , , 21, 72, 14, 3, 4, S, Yes,
02/09/2018 14:00, Ice Watch , 31.6 , , , 22, 73, 15, 2, 3, S, Yes,
02/09/2018 13:53, Wet , 32 , , , 21, 71, 14, 1, 3, S, Yes,
02/09/2018 13:45, Ice Watch , 31.8 , , , 21, 73, 14, 2, 4, S, Yes,
02/09/2018 13:43, Ice Watch , 31.6 , , , 21, 72, 14, 2, 4, S, Yes,
02/09/2018 13:33, Wet , 32 , , , 21, 74, 14, 2, 4, S, Yes,
02/09/2018 13:30, Wet , 32 , , , 21, 73, 14, 2, 5, S, Yes,
02/09/2018 13:23, Wet , 32 , , , 21, 74, 14, 4, 5, S, None, None
02/09/2018 13:15, Ice Watch , 31.8 , , , 21, 72, 14, 2, 4, S, Yes,
02/09/2018 13:13, Ice Watch , 31.8 , , , 21, 71, 13, 2, 4, S, None, None
02/09/2018 13:03, Ice Watch , 31.8 , , , 21, 72, 13, 2, 4, S, Yes,
02/09/2018 13:00, Ice Watch , 31.8 , , , 21, 73, 14, 3, 4, SE, Yes,
02/09/2018 12:52, Ice Watch , 31.6 , , , 20, 74, 13, 2, 2, S, Yes,
02/09/2018 12:45, Ice Watch , 31.6 , , , 20, 75, 14, 1, 3, S, Yes,
02/09/2018 12:42, Ice Watch , 31.6 , , , 20, 75, 14, 1, 3, S, Yes,
02/09/2018 12:32, Ice Watch , 31.5 , , , 20, 76, 13, 2, 3, SE, Yes,
02/09/2018 12:30, Ice Watch , 31.5 , , , 20, 74, 13, 2, 3, S, Yes,
02/09/2018 12:22, Ice Watch , 31.5 , , , 20, 75, 13, 2, 6, S, None, None
02/09/2018 12:15, Ice Watch , 31.6 , , , 20, 75, 14, 4, 7, S, None, None
02/09/2018 12:12, Ice Watch , 31.6 , , , 21, 77, 15, 4, 7, S, None, None
02/09/2018 12:02, Ice Watch , 31.6 , , , 20, 78, 14, 6, 9, S, Yes,
02/09/2018 12:00, Ice Watch , 31.5 , , , 20, 78, 14, 6, 9, SE, None, None
02/09/2018 11:52, Ice Watch , 31.1 , , , 20, 79, 14, 5, 8, S, None, None
02/09/2018 11:45, Ice Watch , 30.7 , , , 21, 79, 15, 4, 6, S, None, None
02/09/2018 11:42, Ice Watch , 30.7 , , , 20, 81, 15, 6, 6, S, None, None
02/09/2018 11:32, Ice Watch , 30 , , , 20, 77, 14, 3, 6, S, Yes,
02/09/2018 11:30, Ice Watch , 30 , , , 20, 76, 14, 4, 6, S, Yes,
02/09/2018 11:22, Ice Watch , 30 , , , 22, 78, 16, 4, 6, S, None, None
02/09/2018 11:15, Ice Watch , 30.2 , , , 21, 82, 17, 4, 4, S, None, None
02/09/2018 11:12, Ice Watch , 30.2 , , , 21, 80, 15, 3, 4, S, Yes,
02/09/2018 11:02, Ice Watch , 29.3 , , , 21, 84, 17, 4, 4, S, Yes,
02/09/2018 11:00, Ice Watch , 29.3 , , , 21, 85, 17, 3, 4, S, Yes,
02/09/2018 10:52, Ice Watch , 28.6 , , , 19, 85, 16, 3, 6, S, None, None
02/09/2018 10:45, Ice Watch , 28.2 , , , 19, 85, 15, 4, 6, SE, Yes,
02/09/2018 10:42, Ice Watch , 28 , , , 19, 86, 15, 4, 6, S, None, None
02/09/2018 10:32, Ice Watch , 27.1 , , , 18, 88, 15, 3, 4, S, None, None
02/09/2018 10:30, Ice Watch , 26.8 , , , 17, 87, 13, 3, 4, S, None, None
02/09/2018 10:22, Ice Watch , 26.8 , , , 17, 88, 14, 2, 4, S, None, None
02/09/2018 10:16, Ice Watch , 26.6 , , , 17, 88, 13, 3, 4, S, None, None
02/09/2018 10:12, Ice Watch , 26.6 , , , 17, 88, 14, 4, 4, S, Yes,
02/09/2018 10:02, Ice Watch , 26.6 , , , 17, 90, 15, 1, 4, SE, None, None
02/09/2018 10:00, Ice Watch , 26.6 , , , 17, 90, 15, 2, 4, SE, None, None
02/09/2018 09:52, Ice Watch , 26.2 , , , 17, 90, 14, 3, 6, S, Yes,
02/09/2018 09:45, Ice Watch , 26.1 , , , 17, 91, 15, 3, 4, S, Yes,
02/09/2018 09:42, Ice Watch , 25.9 , , , 16, 90, 14, 1, 3, S, None, None
02/09/2018 09:31, Ice Watch , 25.7 , , , 16, 91, 14, 2, 4, S, Yes,
02/09/2018 09:30, Ice Watch , 25.7 , , , 16, 91, 14, 2, 4, S, Yes,
02/09/2018 09:21, Ice Watch , 25.9 , , , 16, 91, 14, 3, 5, S, Yes,
02/09/2018 09:15, Ice Watch , 25.7 , , , 15, 92, 14, 4, 5, S, None, None
02/09/2018 09:11, Ice Watch , 25.7 , , , 15, 92, 13, 4, 5, S, None, None
02/09/2018 09:01, Ice Watch , 25.5 , , , 15, 93, 14, 4, 5, SE, None, None
02/09/2018 09:00, Ice Watch , 25.5 , , , 15, 93, 14, 4, 5, SE, None, None
02/09/2018 08:51, Ice Watch , 25.5 , , , 15, 93, 14, 1, 1, SE, Yes,
02/09/2018 08:45, Ice Watch , 25.5 , , , 15, 92, 13, 0, 2, NE, Yes,
02/09/2018 08:41, Ice Watch , 25.5 , , , 15, 92, 13, 1, 3, SE, Yes,
02/09/2018 08:31, Ice Watch , 25.7 , , , 15, 93, 13, 1, 3, S, Yes,
02/09/2018 08:30, Ice Watch , 25.7 , , , 15, 93, 13, 1, 3, S, Yes,
02/09/2018 08:21, Ice Watch , 25.7 , , , 15, 93, 13, 2, 3, SE, Yes,
02/09/2018 08:15, Ice Watch , 25.9 , , , 15, 94, 13, 1, 3, E, None, None
02/09/2018 08:11, Ice Watch , 25.7 , , , 15, 94, 13, 0, 3, E, Yes,
02/09/2018 08:01, Ice Watch , 25.5 , , , 14, 94, 13, 1, 2, E, Yes,
02/09/2018 08:00, Ice Watch , 25.5 , , , 14, 94, 13, 1, 2, E, Yes,
02/09/2018 07:51, Ice Watch , 25.5 , , , 14, 92, 12, 1, 3, SE, Yes,
02/09/2018 07:45, Ice Watch , 25.7 , , , 14, 93, 13, 2, 3, SE, Yes,
02/09/2018 07:41, Ice Watch , 25.9 , , , 14, 93, 13, 1, 3, SE, Yes,
02/09/2018 07:31, Ice Watch , 26.6 , , , 15, 93, 13, 1, 3, SE, Yes,
02/09/2018 07:30, Ice Watch , 26.6 , , , 15, 93, 13, 0, 4, SE, Yes,
02/09/2018 07:21, Ice Watch , 27.1 , , , 15, 93, 13, 3, 4, S, Yes,
02/09/2018 07:15, Ice Watch , 27.7 , , , 15, 93, 13, 2, 3, S, Yes,
02/09/2018 07:11, Ice Watch , 27.9 , , , 15, 93, 13, 2, 4, S, Yes,
02/09/2018 07:01, Ice Watch , 27.9 , , , 15, 93, 14, 3, 6, S, Yes,
02/09/2018 07:00, Ice Watch , 27.9 , , , 15, 93, 14, 3, 6, S, Yes,
02/09/2018 06:51, Ice Watch , 28 , , , 16, 93, 14, 4, 5, S, Yes,
02/09/2018 06:45, Ice Watch , 28.2 , , , 16, 94, 14, 4, 4, S, Yes,
02/09/2018 06:40, Ice Watch , 28.2 , , , 16, 94, 14, 3, 5, S, Yes,
02/09/2018 06:30, Ice Watch , 28.6 , , , 16, 94, 14, 3, 4, S, Yes,
02/09/2018 06:30, Ice Watch , 28.6 , , , 16, 94, 14, 3, 4, S, Yes,
02/09/2018 06:20, Ice Watch , 29.1 , , , 16, 94, 15, 3, 4, S, Yes,
02/09/2018 06:15, Ice Watch , 29.1 , , , 16, 94, 15, 4, 4, S, Yes,
02/09/2018 06:10, Ice Watch , 29.1 , , , 16, 94, 15, 2, 4, S, Yes,
02/09/2018 06:00, Ice Watch , 29.1 , , , 16, 94, 15, 3, 4, S, Yes,
02/09/2018 06:00, Ice Watch , 29.1 , , , 16, 94, 15, 3, 4, S, Yes,
02/09/2018 05:50, Ice Watch , 29.1 , , , 16, 94, 15, 2, 4, SE, Yes,
02/09/2018 05:45, Ice Watch , 29.1 , , , 16, 94, 15, 3, 4, S, Yes,
02/09/2018 05:40, Ice Watch , 29.3 , , , 16, 94, 15, 4, 4, S, Yes,
02/09/2018 05:30, Ice Watch , 29.3 , , , 16, 95, 15, 1, 2, N, Yes,
02/09/2018 05:30, Ice Watch , 29.3 , , , 16, 95, 15, 0, 2, N, Yes,
02/09/2018 05:20, Ice Watch , 29.3 , , , 16, 95, 15, 3, 3, S, Yes,
02/09/2018 05:15, Ice Watch , 29.3 , , , 16, 95, 15, 2, 3, S, Yes,
02/09/2018 05:10, Ice Watch , 29.5 , , , 16, 94, 15, 2, 4, S, Yes,
02/09/2018 05:00, Ice Watch , 30 , , , 16, 94, 15, 3, 4, S, Yes,
02/09/2018 05:00, Ice Watch , 30 , , , 17, 94, 15, 3, 4, S, Yes,
02/09/2018 04:50, Ice Watch , 30 , , , 16, 94, 15, 2, 4, S, Yes,
02/09/2018 04:45, Ice Watch , 30 , , , 17, 94, 15, 3, 4, S, Yes,
02/09/2018 04:40, Ice Watch , 30.2 , , , 16, 94, 15, 2, 4, S, Yes,
02/09/2018 04:30, Ice Watch , 30 , , , 17, 94, 15, 2, 4, S, Yes,
02/09/2018 04:30, Ice Watch , 30 , , , 17, 94, 15, 2, 4, S, Yes,
02/09/2018 04:20, Ice Watch , 30.2 , , , 16, 94, 15, 2, 4, SW, Yes,
02/09/2018 04:15, Ice Watch , 30.2 , , , 17, 94, 15, 3, 4, S, Yes,
02/09/2018 04:10, Ice Watch , 30.2 , , , 17, 95, 15, 3, 4, S, Yes,
02/09/2018 04:00, Ice Watch , 30.2 , , , 17, 94, 15, 2, 4, S, Yes,
02/09/2018 04:00, Ice Watch , 30.2 , , , 17, 94, 15, 3, 4, SE, Yes,
02/09/2018 03:49, Ice Watch , 30.4 , , , 17, 94, 16, 3, 4, S, Yes,
02/09/2018 03:45, Ice Watch , 30.4 , , , 17, 95, 16, 2, 4, S, Yes,
02/09/2018 03:39, Ice Watch , 30.6 , , , 17, 94, 16, 2, 4, S, Yes,
02/09/2018 03:30, Ice Watch , 30.6 , , , 17, 94, 16, 1, 2, S, Yes,
02/09/2018 03:29, Ice Watch , 30.6 , , , 17, 94, 16, 1, 2, SE, Yes,
02/09/2018 03:19, Ice Watch , 30.6 , , , 18, 94, 16, 0, 3, W, Yes,
02/09/2018 03:15, Ice Watch , 30.6 , , , 18, 95, 17, 1, 3, SE, Yes,
02/09/2018 03:09, Ice Warning , 30.6 , , , 18, 96, 17, 1, 2, E, Yes,
02/09/2018 03:00, Ice Warning , 30.7 , , , 18, 96, 17, 0, 9, NW, Yes,
02/09/2018 02:59, Ice Warning , 30.7 , , , 18, 96, 17, 1, 9, NW, Yes,
02/09/2018 02:49, Ice Warning , 30.9 , , , 18, 95, 17, 4, 6, SE, Yes,
02/09/2018 02:45, Ice Watch , 30.9 , , , 18, 95, 17, 4, 6, S, Yes,
02/09/2018 02:39, Ice Watch , 30.9 , , , 18, 95, 17, 4, 5, SE, Yes,
02/09/2018 02:30, Ice Watch , 31.1 , , , 18, 95, 17, 4, 6, S, Yes,
02/09/2018 02:29, Ice Watch , 31.1 , , , 18, 95, 17, 4, 6, S, Yes,
02/09/2018 02:19, Ice Warning , 31.3 , , , 18, 96, 17, 3, 6, S, Yes,
02/09/2018 02:15, Ice Warning , 31.3 , , , 18, 96, 17, 2, 6, SE, Yes,
02/09/2018 02:09, Ice Watch , 31.3 , , , 18, 95, 17, 5, 6, SE, Yes,
02/09/2018 02:00, Ice Watch , 31.5 , , , 18, 95, 17, 1, 6, SE, Yes,
02/09/2018 01:59, Ice Watch , 31.3 , , , 18, 95, 17, 3, 6, SE, Yes,
02/09/2018 01:49, Ice Watch , 31.6 , , , 19, 95, 17, 3, 5, SE, Yes,
02/09/2018 01:45, Ice Watch , 31.6 , , , 19, 95, 17, 2, 5, SE, Yes,
02/09/2018 01:39, Ice Watch , 31.6 , , , 19, 96, 18, 1, 4, SE, Yes,
02/09/2018 01:30, Ice Watch , 31.6 , , , 19, 95, 17, , , -, Yes,
02/09/2018 01:29, Other , , , , , , , , , -, Yes,
02/09/2018 01:15, Ice Watch , 31.6 , , , 19, 96, 18, 3, 4, S, Yes,
02/09/2018 01:07, Ice Watch , 31.6 , , , 19, 96, 18, 1, 4, SE, Yes,
02/09/2018 01:00, Ice Watch , 31.6 , , , 19, 96, 18, 1, 4, S, Yes,
02/09/2018 00:57, Ice Warning , 31.6 , , , 19, 96, 18, 3, 4, SW, Yes,
02/09/2018 00:47, Ice Warning , 31.6 , , , 19, 96, 19, 1, 5, SW, Yes,
02/09/2018 00:45, Ice Warning , 31.6 , , , 19, 95, 18, 2, 5, SW, Yes,
02/09/2018 00:37, Ice Warning , 31.6 , , , 20, 96, 19, 3, 6, SE, None, None
02/09/2018 00:30, Ice Warning , 31.5 , , , 20, 96, 19, 3, 6, E, Yes,
02/09/2018 00:27, Ice Warning , 31.6 , , , 20, 96, 19, 2, 6, E, Yes,
02/09/2018 00:17, Wet , 32 , , , 20, 97, 20, 5, 7, SE, Yes,
02/09/2018 00:15, Wet , 32 , , , 20, 98, 20, 2, 6, E, Yes,
02/09/2018 00:07, Wet , 32.4 , , , 20, 97, 20, 4, 6, SE, None, None
02/09/2018 00:00, Wet , 32.2 , , , 21, 98, 21, 3, 5, SE, Yes,
02/08/2018 23:57, Wet , 32.2 , , , 21, 99, 21, 0, 3, E, Yes,
02/08/2018 23:47, Wet , 32.2 , , , 22, 98, 21, 1, 4, NE, Yes,
02/08/2018 23:45, Wet , 32.2 , , , 22, 99, 21, 1, , E, None, None
02/08/2018 23:37, Other , , , , , , , , , -, Yes,
02/08/2018 22:15, Wet , 32.4 , , , 25, , 26, 1, 5, NW, Yes,
02/08/2018 22:07, Wet , 32.4 , , , 24, , 25, 0, 5, SW, Yes,
02/08/2018 22:01, Wet , 32.4 , , , 24, , 25, 2, 6, S, Yes,
02/08/2018 21:57, Wet , 32.4 , , , 24, , 25, 4, 6, S, Yes,
02/08/2018 21:47, Wet , 32.4 , , , 26, , 27, 2, 7, NE, Yes,
02/08/2018 21:45, Wet , 32.4 , , , 26, , 27, 4, 7, S, Yes,
02/08/2018 21:37, Wet , 32.4 , , , 27, , 28, 1, 6, N, Yes,
02/08/2018 21:31, Wet , 32.4 , , , 26, , 27, 2, 9, NW, Yes,
02/08/2018 21:27, Wet , 32.2 , , , 26, , 27, 2, 9, E, Yes,
02/08/2018 21:17, Wet , 32.2 , , , 26, , 28, 6, 10, SE, Yes,
02/08/2018 21:15, Wet , 32.4 , , , 26, , 28, 7, 10, SE, Yes,
02/08/2018 21:06, Wet , 32.4 , , , 27, , 28, 6, 9, S, Yes,
02/08/2018 21:00, Wet , 32.4 , , , 27, , 29, 6, 7, S, Yes,
02/08/2018 20:56, Wet , 32.4 , , , 28, , 29, 3, 7, S, Yes,
02/08/2018 20:46, Wet , 32.4 , , , 28, , 29, 4, 11, SE, Yes,
02/08/2018 20:45, Wet , 32.4 , , , 28, , 29, 4, 11, SE, Yes,
02/08/2018 20:36, Wet , 32.4 , , , 28, , 29, 6, 11, S, Yes,
02/08/2018 20:30, Wet , 32.4 , , , 29, , 30, 7, 9, S, Yes,
02/08/2018 20:26, Wet , 32.4 , , , 29, , 31, 6, 12, S, Yes,
02/08/2018 20:16, Wet , 32.5 , , , 31, , 32, 3, 12, E, Yes,
02/08/2018 20:16, Wet , 32.5 , , , 31, , 32, 3, 12, E, Yes,
02/08/2018 20:06, Wet , 32.5 , , , 32, , 33, 7, 10, SE, Yes,
02/08/2018 20:01, Wet , 32.5 , , , 32, , 34, 6, 9, S, Yes,
02/08/2018 19:56, Wet , 32.5 , , , 32, , 34, 6, 9, S, Yes,
02/08/2018 19:46, Wet , 32.7 , , , 33, , 34, 2, 7, E, Yes,
02/08/2018 19:36, Wet , 34.3 , , , 35, , 36, 4, 7, SE, Yes,
02/08/2018 19:26, Wet , 35.8 , , , 35, , 37, 0, 4, N, Yes,
02/08/2018 19:16, Other , , , , , , , , , -, Yes,
02/08/2018 19:16, Other , , , , , , , , , -, Yes,
Change End Date:

Copyright © 1998-2015 Vaisala, Inc.
All Rights Reserved
Send comments about the data to:
SCAN Web ® is a registered trademark of Vaisala, Inc.
SCAN Web Version 6.0